User: anonymous   Login
Location: Prairie View Elementary School
(39.8322°N, 99.5698°W)
Time: 09:51:44
(UTC+00:00)
Language:

Centaur D AC-28 - Orbit

View from above orbital plane
View from above orbital plane
View from above satellite
View from above satellite

Ground track
Ground track

The orbit data is extracted from the following two-line orbital elements,

1  5816U 72003B   20055.30961156 -.00000051 +00000-0 +11169-2 0  9992
2  5816 028.5518 346.6345 7192052 120.5556 007.8014 02.20877150387406
Epoch (UTC): 24 February 2020 07:25:50
Eccentricity: 0.7192052
inclination: 28.5518°
perigee height: 615 km
apogee height: 36440 km
right ascension of ascending node: 346.6345°
argument of perigee: 120.5556°
revolutions per day: 2.20877150
mean anomaly at epoch: 7.8014°
orbit number at epoch: 38740

The dashed part of the orbit path shows where the satellite is in the earth's shadow,  

DLR